Regional Weather Roundup
Issued by NWS

Home | Current Version | Previous Version | Text Only | Print | Product List | Glossary Off
Versions: 1 2 3 4 5 6 7 8 9 10 11 12 13 14 15 16 17 18 19 20 21 22 23 24 25 26 27 28 29 30 31 32 33 34 35 36 37 38 39 40 41 42 43 44 45 46 47 48 49 50

130
ASUS45 KSLC 262310
RWRUT

UTAH REGIONAL WEATHER ROUNDUP
NATIONAL WEATHER SERVICE SALT LAKE CITY UT
500 PM MDT MON SEP 26 2016

UTZ001>011-023>025-270000-

NORTHERN UTAH

CITY           SKY/WX    TMP DP  RH WIND       PRES   REMARKS
BRIGHAM CITY     N/A     73  44  36 S5        30.30F
DUGWAY         MOSUNNY   70  48  45 NW7       30.31F
HILL AFB       SUNNY     71  45  40 N7        30.32F
LOGAN          SUNNY     71  43  36 CALM      30.30F
OGDEN          SUNNY     70  43  37 W5        30.30F
PROVO AIRPORT  SUNNY     68  45  42 VRB6      30.30F
SALT LAKE CITY MOSUNNY   72  50  45 NW9       30.29F
VERNAL         SUNNY     68  42  38 E5        30.34F
WENDOVER       SUNNY     72  39  30 SE5       30.32F
HEBER CITY     SUNNY     75  36  23 SW8       30.29F
WEST JORDAN    SUNNY     69  43  38 NW8       30.32F

$$

UTZ012>022-026-027-270000-

SOUTHERN/CENTRAL UTAH

CITY           SKY/WX    TMP DP  RH WIND       PRES   REMARKS
BLANDING       SUNNY     74  33  22 CALM      30.39F
BRYCE CANYON   SUNNY     66  27  23 S7        30.43F
CEDAR CITY     SUNNY     76  31  19 NE6       30.29F
DELTA          SUNNY     73  34  23 CALM      30.30F
MILFORD        SUNNY     77  34  21 N10       30.28F
MOAB/CYNLANDS  SUNNY     76  34  21 VRB6      30.25F
PRICE          SUNNY     70  34  26 VRB6      30.35F
ST GEORGE      CLEAR     86  36  16 NW5       30.13F

$$

REGIONAL REPORTS     COLORADO/ARIZONA

CITY           SKY/WX    TMP DP  RH WIND       PRES   REMARKS
CRAIG, CO      SUNNY     72  27  18 SW5       30.37F
GRAND JUNCTION SUNNY     75  37  25 W9        30.27F
RIFLE          SUNNY     75  31  19 NW7       30.29F
MONTROSE       SUNNY     72  36  26 NW6       30.33F
CORTEZ         SUNNY     75  35  23 VRB3      30.31F
PAGE, AZ       SUNNY     79  31  17 NE6       30.23F
GRAND CANYON   SUNNY     70  35  27 NE10      30.37F
KINGMAN        SUNNY     89  32  13 NW12G20   30.09F
FLAGSTAFF      SUNNY     68  25  19 E17G24    30.33F

$$

REGIONAL REPORTS    NEVADA/IDAHO/WYOMING

CITY           SKY/WX    TMP DP  RH WIND       PRES   REMARKS
LAS VEGAS, NV  SUNNY     90  28  11 CALM      30.06F
ELY            SUNNY     76  32  20 NE8       30.34F
ELKO           SUNNY     82  34  17 VRB6      30.26F
POCATELLO, ID  SUNNY     74  43  32 NW8       30.32F
BURLEY         SUNNY     76  41  28 E8        30.26F
EVANSTON, WY   SUNNY     69  35  28 NW7       30.41F
ROCK SPRINGS   SUNNY     67  37  33 CALM      30.40F

$$




USA.gov is the U.S. government's official web portal to all federal, state and local government web resources and services.